Home   Weather   Vieux Fort   Past weeks

Flag for Saint Lucia Past Weather in Vieux Fort, Saint Lucia — Yesterday and Last 2 Weeks

Now
82 °F

Passing clouds.


Feels Like: 89 °F
Forecast: 81 / 84 °F
Wind: 28 mph from East

Location: Hewanorra International Airport

Current Time: Jun 27, 2017 at 11:53:53 pm

Latest Report: Jun 27, 2017 at 11:00 pm


Visibility: N/A

Pressure: 29.95 "Hg

Humidity: 79%

Dew Point: 75 °F

Location of Vieux FortLocation

Past Weather in Vieux Fort — Graph

°F

Vieux Fort Temperature Yesterday

Maximum temperature yesterday: 88 °F (at 1:00 pm)
Minimum temperature yesterday: 81 °F (at 7:00 am)
Average temperature yesterday: 84 °F

High & Low Weather Summary for the Past Weeks

 TemperatureHumidityPressure
High88 °F (Jun 13, 2:00 pm)100% (Jun 14, 12:00 pm)30.04 "Hg (Jun 14, 12:00 pm)
Low75 °F (Jun 23, 2:00 am)62% (Jun 24, 2:00 pm)29.89 "Hg (Jun 18, 4:00 am)
Average83 °F79%29.97 "Hg
* Reported Jun 12 11:00 pm — Jun 27 11:00 pm, Vieux Fort. Weather by CustomWeather, © 2017

Note: Actual official high and low records may vary slightly from our data, if they occured in-between our weather recording intervals... More about our weather records

Advertising

Vieux Fort Weather History for the Previous 24 Hours

Scroll right to see more
 ConditionsComfort  
Time TempWeatherWind HumidityBarometerVisibility
11:00 pm
Tue, Jun 27
82 °FPassing clouds.28 mph79%29.95 "HgN/A
10:00 pm82 °FPassing clouds.25 mph79%29.95 "HgN/A
9:00 pm82 °FPassing clouds.23 mph79%29.95 "HgN/A
8:00 pm82 °FPassing clouds.20 mph79%29.92 "HgN/A
7:00 pm82 °FPassing clouds.21 mph79%29.92 "HgN/A
6:00 pm84 °FPartly sunny.17 mph74%29.89 "HgN/A
5:00 pm86 °FPassing clouds.20 mph75%29.89 "HgN/A
4:00 pm86 °FScattered clouds.22 mph70%29.92 "HgN/A
3:00 pm86 °FScattered clouds.20 mph70%29.95 "HgN/A
2:00 pm86 °FScattered clouds.21 mph70%29.95 "HgN/A
1:00 pm86 °FPassing clouds.18 mph70%29.98 "HgN/A
12:00 pm86 °FPassing clouds.21 mph70%29.98 "HgN/A
11:00 am86 °FPassing clouds.21 mph70%29.98 "HgN/A
10:00 am86 °FPassing clouds.20 mph70%29.98 "HgN/A
9:00 am86 °FPassing clouds.21 mph70%29.95 "HgN/A
8:00 am84 °FPassing clouds.22 mph74%29.95 "HgN/A
7:00 am82 °FPassing clouds.20 mph79%29.95 "HgN/A
6:00 am81 °FScattered clouds.16 mph84%29.95 "HgN/A
5:00 am81 °FPassing clouds.18 mph84%29.95 "HgN/A
4:00 am81 °FPassing clouds.22 mph84%29.95 "HgN/A
3:00 am81 °FPassing clouds.16 mph84%29.95 "HgN/A
2:00 am81 °FSprinkles. Passing clouds.17 mph84%29.95 "HgN/A
1:00 am82 °FRain showers. Passing clouds.18 mph79%29.95 "HgN/A
12:00 am82 °FPassing clouds.17 mph84%29.95 "HgN/A
11:00 pm
Mon, Jun 26
82 °FPassing clouds.16 mph79%29.95 "HgN/A
Weather by CustomWeather, © 2017

See weather overviewHow to use our weather pages